Time,TemperatureF,DewpointF,PressureIn,WindDirection,WindDirectionDegrees,WindSpeedMPH,WindSpeedGustMPH,Humidity,HourlyPrecipIn,Conditions,Clouds,dailyrainin,SoftwareType,DateUTC
2013-01-11 00:04:00,38.0,28.0,30.28,ENE,67,0.0,-999.0,66,-99.99,,,-99.99,,2013-01-11 05:04:00,
2013-01-11 00:13:00,38.0,28.0,30.28,ENE,67,0.0,-999.0,66,-99.99,,,-99.99,,2013-01-11 05:13:00,
2013-01-11 00:23:00,38.0,28.0,30.27,ENE,77,0.0,-999.0,66,-99.99,,,-99.99,,2013-01-11 05:23:00,
2013-01-11 00:33:00,38.0,27.0,30.25,NE,54,1.0,-999.0,65,-99.99,,,-99.99,,2013-01-11 05:33:00,
2013-01-11 00:43:00,38.0,27.0,30.25,NE,54,1.0,-999.0,65,-99.99,,,-99.99,,2013-01-11 05:43:00,
2013-01-11 00:52:00,38.0,27.0,30.25,ENE,65,2.0,-999.0,65,-99.99,,,-99.99,,2013-01-11 05:52:00,
2013-01-11 01:03:00,39.0,28.0,30.25,ENE,71,1.0,-999.0,64,-99.99,,,-99.99,,2013-01-11 06:03:00,
2013-01-11 01:12:00,39.0,28.0,30.25,ENE,71,1.0,-999.0,64,-99.99,,,-99.99,,2013-01-11 06:12:00,
2013-01-11 01:22:00,39.0,28.0,30.25,East,101,1.0,-999.0,64,-99.99,,,-99.99,,2013-01-11 06:22:00,
2013-01-11 01:32:00,39.0,28.0,30.24,ENE,78,1.0,-999.0,64,-99.99,,,-99.99,,2013-01-11 06:32:00,
2013-01-11 01:42:00,39.0,28.0,30.24,ENE,78,1.0,-999.0,64,-99.99,,,-99.99,,2013-01-11 06:42:00,
2013-01-11 01:52:00,39.0,28.0,30.23,ENE,69,1.0,-999.0,64,-99.99,,,-99.99,,2013-01-11 06:52:00,
2013-01-11 02:02:00,39.0,27.0,30.23,NE,45,1.0,-999.0,63,-99.99,,,-99.99,,2013-01-11 07:02:00,
2013-01-11 02:12:00,39.0,27.0,30.23,NE,45,1.0,-999.0,63,-99.99,,,-99.99,,2013-01-11 07:12:00,
2013-01-11 02:22:00,39.0,27.0,30.22,ENE,63,1.0,-999.0,63,-99.99,,,-99.99,,2013-01-11 07:22:00,
2013-01-11 02:32:00,39.0,28.0,30.21,ENE,63,0.0,-999.0,64,-99.99,,,-99.99,,2013-01-11 07:32:00,
2013-01-11 02:42:00,39.0,28.0,30.21,ENE,62,0.0,-999.0,64,-99.99,,,-99.99,,2013-01-11 07:42:00,
2013-01-11 02:52:00,39.0,28.0,30.21,ENE,62,0.0,-999.0,64,-99.99,,,-99.99,,2013-01-11 07:52:00,
2013-01-11 03:02:00,40.0,29.0,30.22,ENE,62,0.0,-999.0,64,-99.99,,,-99.99,,2013-01-11 08:02:00,
2013-01-11 03:12:00,40.0,29.0,30.22,ENE,59,0.0,-999.0,64,-99.99,,,-99.99,,2013-01-11 08:12:00,
2013-01-11 03:22:00,40.0,29.0,30.22,ENE,59,0.0,-999.0,64,-99.99,,,-99.99,,2013-01-11 08:22:00,
2013-01-11 03:32:00,40.0,29.0,30.21,ENE,60,0.0,-999.0,64,-99.99,,,-99.99,,2013-01-11 08:32:00,
2013-01-11 03:42:00,40.0,29.0,30.21,ENE,60,0.0,-999.0,64,-99.99,,,-99.99,,2013-01-11 08:42:00,
2013-01-11 03:52:00,40.0,29.0,30.21,ENE,62,0.0,-999.0,64,-99.99,,,-99.99,,2013-01-11 08:52:00,
2013-01-11 04:02:00,40.0,29.0,30.21,ENE,63,0.0,-999.0,64,-99.99,,,-99.99,,2013-01-11 09:02:00,
2013-01-11 04:12:00,40.0,29.0,30.21,ENE,63,0.0,-999.0,64,-99.99,,,-99.99,,2013-01-11 09:12:00,
2013-01-11 04:23:00,40.0,29.0,30.18,ESE,105,0.0,-999.0,65,-99.99,,,-99.99,,2013-01-11 09:23:00,
2013-01-11 04:32:00,41.0,30.0,30.17,SSE,154,1.0,-999.0,65,-99.99,,,-99.99,,2013-01-11 09:32:00,
2013-01-11 04:42:00,41.0,30.0,30.17,SSE,154,1.0,-999.0,65,-99.99,,,-99.99,,2013-01-11 09:42:00,
2013-01-11 04:52:00,41.0,30.0,30.16,ESE,109,1.0,-999.0,65,-99.99,,,-99.99,,2013-01-11 09:52:00,
2013-01-11 05:02:00,42.0,31.0,30.14,East,91,1.0,-999.0,65,-99.99,,,-99.99,,2013-01-11 10:02:00,
2013-01-11 05:12:00,42.0,31.0,30.14,East,91,1.0,-999.0,65,-99.99,,,-99.99,,2013-01-11 10:12:00,
2013-01-11 05:22:00,42.0,31.0,30.14,SE,132,1.0,-999.0,65,-99.99,,,-99.99,,2013-01-11 10:22:00,
2013-01-11 05:32:00,41.0,31.0,30.14,East,101,1.0,-999.0,66,-99.99,,,-99.99,,2013-01-11 10:32:00,
2013-01-11 05:42:00,41.0,31.0,30.14,East,101,1.0,-999.0,66,-99.99,,,-99.99,,2013-01-11 10:42:00,
2013-01-11 05:52:00,41.0,31.0,30.14,ESE,110,1.0,-999.0,66,-99.99,,,-99.99,,2013-01-11 10:52:00,
2013-01-11 06:03:00,41.0,31.0,30.14,East,80,0.0,-999.0,66,-99.99,,,-99.99,,2013-01-11 11:03:00,
2013-01-11 06:12:00,41.0,31.0,30.14,East,80,0.0,-999.0,66,-99.99,,,-99.99,,2013-01-11 11:12:00,
2013-01-11 06:22:00,41.0,31.0,30.13,East,80,0.0,-999.0,66,-99.99,,,-99.99,,2013-01-11 11:22:00,
2013-01-11 06:33:00,41.0,31.0,30.14,ESE,106,0.0,-999.0,67,-99.99,,,-99.99,,2013-01-11 11:33:00,
2013-01-11 06:43:00,41.0,31.0,30.14,ESE,106,0.0,-999.0,67,-99.99,,,-99.99,,2013-01-11 11:43:00,
2013-01-11 06:53:00,41.0,31.0,30.14,East,88,0.0,-999.0,67,-99.99,,,-99.99,,2013-01-11 11:53:00,
2013-01-11 07:03:00,41.0,31.0,30.13,SE,125,1.0,-999.0,67,-99.99,,,-99.99,,2013-01-11 12:03:00,
2013-01-11 07:12:00,41.0,31.0,30.13,SE,125,1.0,-999.0,67,-99.99,,,-99.99,,2013-01-11 12:12:00,
2013-01-11 07:22:00,41.0,31.0,30.12,ESE,120,1.0,-999.0,67,-99.99,,,-99.99,,2013-01-11 12:22:00,
2013-01-11 07:33:00,41.0,31.0,30.12,ESE,120,1.0,-999.0,67,-99.99,,,-99.99,,2013-01-11 12:33:00,
2013-01-11 07:43:00,41.0,31.0,30.12,ESE,120,1.0,-999.0,67,-99.99,,,-99.99,,2013-01-11 12:43:00,
2013-01-11 07:52:00,41.0,33.0,30.12,SE,131,1.0,-999.0,74,-99.99,,,-99.99,,2013-01-11 12:52:00,
2013-01-11 08:03:00,41.0,34.0,30.11,East,98,0.0,-999.0,75,-99.99,,,-99.99,,2013-01-11 13:03:00,
2013-01-11 08:13:00,41.0,34.0,30.11,East,98,0.0,-999.0,75,-99.99,,,-99.99,,2013-01-11 13:13:00,
2013-01-11 08:22:00,41.0,34.0,30.09,East,88,1.0,-999.0,77,-99.99,,,-99.99,,2013-01-11 13:22:00,
2013-01-11 08:33:00,41.0,35.0,30.09,East,99,1.0,-999.0,79,-99.99,,,-99.99,,2013-01-11 13:33:00,
2013-01-11 08:43:00,41.0,35.0,30.09,East,99,1.0,-999.0,79,-99.99,,,-99.99,,2013-01-11 13:43:00,
2013-01-11 08:52:00,41.0,35.0,30.09,ESE,104,0.0,-999.0,80,-99.99,,,-99.99,,2013-01-11 13:52:00,
2013-01-11 09:03:00,41.0,36.0,30.08,East,101,0.0,-999.0,81,-99.99,,,-99.99,,2013-01-11 14:03:00,
2013-01-11 09:12:00,41.0,36.0,30.08,East,101,0.0,-999.0,81,-99.99,,,-99.99,,2013-01-11 14:12:00,
2013-01-11 09:23:00,41.0,36.0,30.07,East,100,0.0,-999.0,81,-99.99,,,-99.99,,2013-01-11 14:23:00,
2013-01-11 09:33:00,41.0,36.0,30.06,ESE,103,1.0,-999.0,82,-99.99,,,-99.99,,2013-01-11 14:33:00,
2013-01-11 09:43:00,42.0,37.0,30.06,ESE,105,1.0,-999.0,83,-99.99,,,-99.99,,2013-01-11 14:43:00,
2013-01-11 09:53:00,42.0,37.0,30.06,ESE,105,1.0,-999.0,83,-99.99,,,-99.99,,2013-01-11 14:53:00,
2013-01-11 10:03:00,42.0,37.0,30.04,ESE,103,1.0,-999.0,83,-99.99,,,-99.99,,2013-01-11 15:03:00,
2013-01-11 10:13:00,43.0,38.0,30.04,East,88,1.0,-999.0,83,-99.99,,,-99.99,,2013-01-11 15:13:00,
2013-01-11 10:23:00,43.0,38.0,30.04,East,88,1.0,-999.0,83,-99.99,,,-99.99,,2013-01-11 15:23:00,
2013-01-11 10:33:00,43.0,39.0,30.03,East,90,0.0,-999.0,85,-99.99,,,-99.99,,2013-01-11 15:33:00,
2013-01-11 10:43:00,43.0,39.0,30.03,East,90,0.0,-999.0,85,-99.99,,,-99.99,,2013-01-11 15:43:00,
2013-01-11 10:52:00,43.0,39.0,30.02,East,90,0.0,-999.0,86,-99.99,,,-99.99,,2013-01-11 15:52:00,
2013-01-11 11:03:00,43.0,39.0,30.01,East,94,0.0,-999.0,87,-99.99,,,-99.99,,2013-01-11 16:03:00,
2013-01-11 11:12:00,43.0,40.0,30.01,East,94,0.0,-999.0,89,-99.99,,,-99.99,,2013-01-11 16:12:00,
2013-01-11 11:23:00,43.0,40.0,30.01,East,94,0.0,-999.0,89,-99.99,,,-99.99,,2013-01-11 16:23:00,
2013-01-11 11:33:00,43.0,41.0,29.99,East,94,0.0,-999.0,91,-99.99,,,-99.99,,2013-01-11 16:33:00,
2013-01-11 11:43:00,43.0,41.0,29.99,East,94,0.0,-999.0,91,-99.99,,,-99.99,,2013-01-11 16:43:00,
2013-01-11 11:53:00,43.0,41.0,29.99,East,94,0.0,-999.0,91,-99.99,,,-99.99,,2013-01-11 16:53:00,
2013-01-11 12:03:00,43.0,41.0,29.99,East,94,0.0,-999.0,91,-99.99,,,-99.99,,2013-01-11 17:03:00,
2013-01-11 12:12:00,42.0,40.0,29.95,ENE,63,0.0,-999.0,94,-99.99,,,-99.99,,2013-01-11 17:12:00,
2013-01-11 12:22:00,42.0,40.0,29.95,ENE,63,0.0,-999.0,94,-99.99,,,-99.99,,2013-01-11 17:22:00,
2013-01-11 12:33:00,42.0,40.0,29.96,ENE,62,0.0,-999.0,94,-99.99,,,-99.99,,2013-01-11 17:33:00,
2013-01-11 12:43:00,42.0,40.0,29.96,ENE,62,0.0,-999.0,94,-99.99,,,-99.99,,2013-01-11 17:43:00,
2013-01-11 12:53:00,42.0,41.0,29.97,ENE,62,0.0,-999.0,95,-99.99,,,-99.99,,2013-01-11 17:53:00,
2013-01-11 13:04:00,42.0,41.0,29.96,ENE,62,0.0,-999.0,95,-99.99,,,-99.99,,2013-01-11 18:04:00,
2013-01-11 13:13:00,42.0,41.0,29.96,ENE,62,0.0,-999.0,95,-99.99,,,-99.99,,2013-01-11 18:13:00,
2013-01-11 13:23:00,42.0,41.0,29.96,ENE,62,0.0,-999.0,95,-99.99,,,-99.99,,2013-01-11 18:23:00,
2013-01-11 13:33:00,42.0,41.0,29.95,ENE,60,1.0,-999.0,96,-99.99,,,-99.99,,2013-01-11 18:33:00,
2013-01-11 13:43:00,42.0,41.0,29.95,ENE,60,1.0,-999.0,96,-99.99,,,-99.99,,2013-01-11 18:43:00,
2013-01-11 13:53:00,43.0,42.0,29.95,East,86,1.0,-999.0,96,-99.99,,,-99.99,,2013-01-11 18:53:00,
2013-01-11 14:03:00,43.0,42.0,29.95,ESE,121,1.0,-999.0,96,-99.99,,,-99.99,,2013-01-11 19:03:00,
2013-01-11 14:12:00,43.0,42.0,29.95,ESE,121,1.0,-999.0,96,-99.99,,,-99.99,,2013-01-11 19:12:00,
2013-01-11 14:22:00,43.0,42.0,29.93,SE,139,1.0,-999.0,96,-99.99,,,-99.99,,2013-01-11 19:22:00,
2013-01-11 14:33:00,43.0,42.0,29.93,SE,138,2.0,-999.0,96,-99.99,,,-99.99,,2013-01-11 19:33:00,
2013-01-11 14:43:00,43.0,42.0,29.93,SE,138,2.0,-999.0,96,-99.99,,,-99.99,,2013-01-11 19:43:00,
2013-01-11 14:54:00,43.0,42.0,29.94,SE,138,1.0,-999.0,96,-99.99,,,-99.99,,2013-01-11 19:54:00,
2013-01-11 15:03:00,44.0,43.0,29.92,SE,138,2.0,-999.0,97,-99.99,,,-99.99,,2013-01-11 20:03:00,
2013-01-11 15:12:00,44.0,43.0,29.92,SE,138,2.0,-999.0,97,-99.99,,,-99.99,,2013-01-11 20:12:00,
2013-01-11 15:22:00,45.0,44.0,29.92,SE,136,4.0,-999.0,97,-99.99,,,-99.99,,2013-01-11 20:22:00,
2013-01-11 15:33:00,47.0,46.0,29.92,SSE,164,5.0,-999.0,98,-99.99,,,-99.99,,2013-01-11 20:33:00,
2013-01-11 15:43:00,47.0,46.0,29.92,SSE,164,5.0,-999.0,98,-99.99,,,-99.99,,2013-01-11 20:43:00,
2013-01-11 15:53:00,48.0,47.0,29.92,SSE,158,3.0,-999.0,98,-99.99,,,-99.99,,2013-01-11 20:53:00,
2013-01-11 16:03:00,49.0,48.0,29.92,SSE,159,3.0,-999.0,98,-99.99,,,-99.99,,2013-01-11 21:03:00,
2013-01-11 16:12:00,49.0,48.0,29.92,SSE,159,3.0,-999.0,98,-99.99,,,-99.99,,2013-01-11 21:12:00,
2013-01-11 16:23:00,49.0,48.0,29.93,SSE,157,3.0,-999.0,98,-99.99,,,-99.99,,2013-01-11 21:23:00,
2013-01-11 16:33:00,50.0,49.0,29.93,SSW,198,3.0,-999.0,98,-99.99,,,-99.99,,2013-01-11 21:33:00,
2013-01-11 16:42:00,50.0,49.0,29.93,SSW,198,3.0,-999.0,98,-99.99,,,-99.99,,2013-01-11 21:42:00,
2013-01-11 16:53:00,50.0,49.0,29.93,SSW,200,4.0,-999.0,98,-99.99,,,-99.99,,2013-01-11 21:53:00,
2013-01-11 17:03:00,51.0,50.0,29.93,SSW,194,3.0,-999.0,98,-99.99,,,-99.99,,2013-01-11 22:03:00,
2013-01-11 17:12:00,51.0,50.0,29.93,SSW,194,3.0,-999.0,98,-99.99,,,-99.99,,2013-01-11 22:12:00,
2013-01-11 17:23:00,51.0,50.0,29.93,South,183,2.0,-999.0,98,-99.99,,,-99.99,,2013-01-11 22:23:00,
2013-01-11 17:33:00,51.0,50.0,29.93,South,185,2.0,-999.0,98,-99.99,,,-99.99,,2013-01-11 22:33:00,
2013-01-11 17:42:00,51.0,50.0,29.93,South,185,2.0,-999.0,98,-99.99,,,-99.99,,2013-01-11 22:42:00,
2013-01-11 17:53:00,50.0,49.0,29.93,South,190,3.0,-999.0,98,-99.99,,,-99.99,,2013-01-11 22:53:00,
2013-01-11 18:02:00,51.0,50.0,29.94,SSW,208,2.0,-999.0,98,-99.99,,,-99.99,,2013-01-11 23:02:00,
2013-01-11 18:13:00,51.0,50.0,29.94,SSW,208,2.0,-999.0,98,-99.99,,,-99.99,,2013-01-11 23:13:00,
2013-01-11 18:23:00,50.0,49.0,29.94,SSW,195,2.0,-999.0,98,-99.99,,,-99.99,,2013-01-11 23:23:00,
2013-01-11 18:32:00,50.0,49.0,29.94,South,185,3.0,-999.0,97,-99.99,,,-99.99,,2013-01-11 23:32:00,
2013-01-11 18:43:00,50.0,49.0,29.94,South,185,3.0,-999.0,97,-99.99,,,-99.99,,2013-01-11 23:43:00,
2013-01-11 18:53:00,50.0,49.0,29.95,South,189,1.0,-999.0,97,-99.99,,,-99.99,,2013-01-11 23:53:00,
2013-01-11 19:02:00,50.0,49.0,29.95,South,188,1.0,-999.0,97,-99.99,,,-99.99,,2013-01-12 00:02:00,
2013-01-11 19:12:00,50.0,49.0,29.95,SSW,192,2.0,-999.0,97,-99.99,,,-99.99,,2013-01-12 00:12:00,
2013-01-11 19:23:00,50.0,49.0,29.95,SSW,192,2.0,-999.0,97,-99.99,,,-99.99,,2013-01-12 00:23:00,
2013-01-11 19:33:00,50.0,49.0,29.96,South,184,3.0,-999.0,97,-99.99,,,-99.99,,2013-01-12 00:33:00,
2013-01-11 19:43:00,50.0,49.0,29.96,South,184,3.0,-999.0,97,-99.99,,,-99.99,,2013-01-12 00:43:00,
2013-01-11 19:53:00,50.0,49.0,29.96,SSW,200,1.0,-999.0,97,-99.99,,,-99.99,,2013-01-12 00:53:00,
2013-01-11 20:02:00,50.0,49.0,29.96,South,190,1.0,-999.0,97,-99.99,,,-99.99,,2013-01-12 01:02:00,
2013-01-11 20:12:00,50.0,49.0,29.96,South,190,1.0,-999.0,97,-99.99,,,-99.99,,2013-01-12 01:12:00,
2013-01-11 20:22:00,50.0,49.0,29.96,South,191,0.0,-999.0,97,-99.99,,,-99.99,,2013-01-12 01:22:00,
2013-01-11 20:33:00,50.0,49.0,29.96,South,188,1.0,-999.0,97,-99.99,,,-99.99,,2013-01-12 01:33:00,
2013-01-11 20:43:00,50.0,49.0,29.96,South,188,1.0,-999.0,97,-99.99,,,-99.99,,2013-01-12 01:43:00,
2013-01-11 20:53:00,50.0,49.0,29.96,South,175,1.0,-999.0,97,-99.99,,,-99.99,,2013-01-12 01:53:00,
2013-01-11 21:02:00,50.0,49.0,29.96,South,178,1.0,-999.0,97,-99.99,,,-99.99,,2013-01-12 02:02:00,
2013-01-11 21:12:00,50.0,49.0,29.96,South,178,1.0,-999.0,97,-99.99,,,-99.99,,2013-01-12 02:12:00,
2013-01-11 21:22:00,50.0,49.0,29.96,South,176,1.0,-999.0,97,-99.99,,,-99.99,,2013-01-12 02:22:00,
2013-01-11 21:33:00,50.0,49.0,29.96,SSW,192,1.0,-999.0,98,-99.99,,,-99.99,,2013-01-12 02:33:00,
2013-01-11 21:43:00,50.0,49.0,29.96,SSW,192,1.0,-999.0,98,-99.99,,,-99.99,,2013-01-12 02:43:00,
2013-01-11 21:53:00,50.0,49.0,29.96,South,190,3.0,-999.0,98,-99.99,,,-99.99,,2013-01-12 02:53:00,
2013-01-11 22:03:00,50.0,49.0,29.96,South,189,3.0,-999.0,98,-99.99,,,-99.99,,2013-01-12 03:03:00,
2013-01-11 22:12:00,50.0,49.0,29.96,South,189,3.0,-999.0,98,-99.99,,,-99.99,,2013-01-12 03:12:00,
2013-01-11 22:22:00,50.0,49.0,29.96,South,173,2.0,-999.0,98,-99.99,,,-99.99,,2013-01-12 03:22:00,
2013-01-11 22:33:00,50.0,49.0,29.97,South,190,2.0,-999.0,98,-99.99,,,-99.99,,2013-01-12 03:33:00,
2013-01-11 22:43:00,50.0,49.0,29.97,South,190,2.0,-999.0,98,-99.99,,,-99.99,,2013-01-12 03:43:00,
2013-01-11 22:53:00,50.0,49.0,29.97,SSW,197,3.0,-999.0,98,-99.99,,,-99.99,,2013-01-12 03:53:00,
2013-01-11 23:02:00,50.0,49.0,29.96,SSW,194,3.0,-999.0,98,-99.99,,,-99.99,,2013-01-12 04:02:00,
2013-01-11 23:12:00,50.0,49.0,29.96,SSW,194,3.0,-999.0,98,-99.99,,,-99.99,,2013-01-12 04:12:00,
2013-01-11 23:22:00,49.0,48.0,29.96,SSW,193,2.0,-999.0,98,-99.99,,,-99.99,,2013-01-12 04:22:00,
2013-01-11 23:32:00,49.0,48.0,29.96,SW,217,2.0,-999.0,98,-99.99,,,-99.99,,2013-01-12 04:32:00,
2013-01-11 23:42:00,49.0,48.0,29.96,SW,217,2.0,-999.0,98,-99.99,,,-99.99,,2013-01-12 04:42:00,
2013-01-11 23:52:00,50.0,49.0,29.96,SSW,208,2.0,-999.0,98,-99.99,,,-99.99,,2013-01-12 04:52:00,